Location: Joplin
(37.0842°N, 94.5131°W)
Time: 23:15:39
(UTC-06:00)

Envisat - Pass Details

Date: 26 October 2018
Orbit: 764 x 766 km, 98.2° (Epoch: 15 November)

Event Time Altitude Azimuth Distance (km) Brightness Sun altitude
Rises 19:30:53 0° 141° (SE) 3,219 5.9 -13.3°
Reaches altitude 10° 19:33:23 10° 131° (SE) 2,297 5.1 -13.8°
Maximum altitude 19:37:50 32° 70° (ENE) 1,291 3.6 -14.7°
Drops below altitude 10° 19:42:19 10° 8° (N) 2,309 5.4 -15.6°
Sets 19:44:49 0° 359° (N) 3,239 6.2 -16.1°
